Weather in Kuybyshevo

Russia / Republic of Khakassia     53°11′49″N   90°46′46″E
temp.,
°C
wind,
m/s
gust,
m/s
humid.,
%
clouds,
%
prec.,
mm/h
press.,
hPa
HPBL,
m
14 april, wed
wed1401:00+1wsw4877100 5.9 1031598
04:000sw61072100 0.0 1030395
07:00+1sw81272100 0.0 1030916
10:00+3wsw8115699 0.0 10311432
13:00+5w9125099 0.1 10291963
16:00+6wsw91352100 0.0 10271653
19:00+3sw111665100 0.1 10251161
22:00+2sw111776100 0.0 10231097
15 april, thu
thu1501:00+3wsw101670100 0.0 10231049
04:00+3wsw81475100 0.0 1024747
07:00+3sw61181100 0.0 1026460
10:00+6wsw5565100 0.0 1027800
13:00+9sw6659100 0.0 10261251
16:00+9sw7758100 0.0 10241108
19:00+7sw697117 0.0 1024539
22:00+4sw488678 0.0 1024190
16 april, fri
fri1601:00+4wsw378974 0.0 1023176
04:00+4wsw389085 0.0 1022229
07:00+4sw49835 0.0 1022254
10:00+8wsw68626 0.0 1020914
13:00+12wsw911495 0.0 10181486
16:00+13wsw810436 0.0 10161737
19:00+11wsw610565 0.0 1016589
22:00+8sw6127713 0.0 1016285
17 april, sat
sat1701:00+7sw51180100 0.0 1014278
04:00+5sw4887100 0.0 1014169
07:00+4sw4885100 0.0 1013174
10:00+2nne7882100 0.1 1016503
13:00+1ne6884100 0.4 1017726
16:000nne6789100 2.3 1018593
19:000nne4584100 2.6 1017538
22:00−1nw118792 0.0 101621
18 april, sun
sun1801:00−2sw239257 0.1 101481
04:00−1wsw259283 0.0 1013146
07:00+1sw379645 0.1 1013239
10:00+5sw8116999 0.2 10121378
13:00+6wsw81252100 0.3 10131876
16:00+7w6947100 0.0 10141846
19:00+5w4756100 0.0 1015351
22:00+3ssw4773100 0.1 1016314